Location: Unspecified
(0.0000°N, 0.0000°E)
Time: 05:11:38
(UTC+00:00)

Tiros 1 despin weight - All Passes

Search period start: 21 May 2026 00:00
Search period end: 31 May 2026 00:00
Orbit: 555 x 591 km, 48.2° (Epoch: 20 May)

Date Brightness Start Highest point End Pass type
(mag) Time Alt. Az. Time Alt. Az. Time Alt. Az.
21 May - 00:41:38 10° W 00:44:37 18° NW 00:47:34 10° N night (unlit)
21 May - 11:01:03 10° NNW 11:04:59 40° NE 11:08:57 10° ESE daylight
21 May - 12:43:32 10° WSW 12:45:23 13° SW 12:47:14 10° SSW daylight
21 May - 23:01:40 10° SSW 23:06:00 60° SE 23:10:16 10° NE night (unlit)
22 May - 11:02:32 10° NW 11:06:44 84° NE 11:10:57 10° SE daylight
22 May - 23:03:22 10° SW 23:07:44 68° NW 23:12:03 10° NNE night (unlit)
23 May - 09:27:06 10° NE 09:28:05 11° NE 09:29:05 10° ENE daylight
23 May - 11:04:27 10° NW 11:08:28 46° SW 11:12:31 10° SSE daylight
23 May - 21:26:19 10° S 21:29:05 16° SE 21:31:49 10° E night (unlit)
23 May - 23:05:29 10° WSW 23:09:28 34° NW 23:13:25 10° NNE night (unlit)
24 May - 09:26:43 10° N 09:29:52 21° NE 09:33:02 10° E daylight
24 May - 11:06:49 10° WNW 11:10:13 24° SW 11:13:38 10° S daylight
24 May - 21:26:58 10° S 21:30:50 30° SE 21:34:41 10° ENE night (unlit)
24 May - 23:08:11 10° W 23:11:13 18° NW 23:14:14 10° N night (unlit)
25 May - 09:27:42 10° NNW 09:31:37 40° NE 09:35:33 10° ESE daylight
25 May - 11:10:10 10° WSW 11:12:00 13° SW 11:13:50 10° SSW daylight
25 May - 21:28:15 10° SSW 21:32:35 59° SE 21:36:52 10° NE night (unlit)
26 May - 09:29:10 10° NW 09:33:21 83° NE 09:37:32 10° SE daylight
26 May - 21:29:55 10° SW 21:34:17 69° NW 21:38:38 10° NNE night (unlit)
27 May - 07:53:48 10° NE 07:54:41 11° NE 07:55:34 10° ENE daylight
27 May - 09:31:03 10° NW 09:35:03 47° SW 09:39:06 10° SSE daylight
27 May - 19:52:53 10° S 19:55:37 16° SE 19:58:20 10° E night (unlit)
27 May - 21:32:00 10° WSW 21:36:01 34° NW 21:39:59 10° NNE night (unlit)
28 May - 07:53:20 10° N 07:56:27 20° NE 07:59:35 10° E daylight
28 May - 09:33:24 10° WNW 09:36:47 24° SW 09:40:12 10° S daylight
28 May - 19:53:31 10° S 19:57:22 30° SE 20:01:11 10° ENE night (unlit)
28 May - 21:34:40 10° W 21:37:45 19° NW 21:40:48 10° N night (unlit)
29 May - 07:54:16 10° NNW 07:58:11 39° NE 08:02:05 10° ESE daylight
29 May - 09:36:41 10° WSW 09:38:33 13° SW 09:40:25 10° SSW daylight
29 May - 19:54:45 10° SSW 19:59:05 58° SE 20:03:23 10° NE visible
30 May - 07:55:43 10° NW 07:59:53 82° NE 08:04:04 10° SE daylight
30 May - 19:56:25 10° SW 20:00:47 70° NW 20:05:08 10° NNE visible
